CXECH SUMU-SUMU

Flight info

Callsign CXECH
Flight time 0h 34m
Altitude 9000
Route LOCAL
Aircraft B738/M-SABDFGRVYL/LB2

Departure

Time 2026-04-24 19:31
Airport Carrasco General Cesáreo L. Berisso International Airport (SUMU)

Arrival

Time 2026-04-24 20:05
Airport Carrasco General Cesáreo L. Berisso International Airport (SUMU)
Time Latitude Longitude Altitude Speed Heading
2026-04-24 19:27 -34.84381 -56.03971 54 ft 0 kts 53°
2026-04-24 19:29 -34.84380 -56.03970 54 ft 1 kts 53°
2026-04-24 19:29 -34.84300 -56.03836 54 ft 46 kts 51°
2026-04-24 19:30 -34.83994 -56.03323 54 ft 101 kts 58°
2026-04-24 19:30 -34.83499 -56.02486 62 ft 138 kts 53°
2026-04-24 19:30 -34.82865 -56.01503 158 ft 156 kts 54°
2026-04-24 19:30 -34.82229 -56.00430 589 ft 153 kts 56°
2026-04-24 19:31 -34.81905 -55.99301 1065 ft 150 kts 91°
2026-04-24 19:31 -34.82371 -55.98088 1202 ft 173 kts 138°
2026-04-24 19:31 -34.83521 -55.97666 1552 ft 182 kts 184°
2026-04-24 19:31 -34.84717 -55.98385 1614 ft 204 kts 225°
2026-04-24 19:32 -34.85706 -55.99689 1666 ft 224 kts 230°
2026-04-24 19:32 -34.86154 -56.00307 1710 ft 225 kts 231°
2026-04-24 19:32 -34.86744 -56.01146 1712 ft 225 kts 232°
2026-04-24 19:32 -34.87772 -56.02649 1550 ft 232 kts 233°
2026-04-24 19:33 -34.88736 -56.04210 1485 ft 233 kts 235°
2026-04-24 19:33 -34.89677 -56.05812 1464 ft 229 kts 237°
2026-04-24 19:33 -34.90494 -56.07425 1386 ft 213 kts 252°
2026-04-24 19:33 -34.90497 -56.09009 1487 ft 173 kts 299°
2026-04-24 19:34 -34.89707 -56.09881 1415 ft 154 kts 344°
2026-04-24 19:34 -34.88705 -56.09813 1260 ft 140 kts 19°
2026-04-24 19:34 -34.87818 -56.09370 1081 ft 136 kts 31°
2026-04-24 19:34 -34.87132 -56.08556 849 ft 133 kts 55°
2026-04-24 19:35 -34.86645 -56.07653 749 ft 126 kts 53°
2026-04-24 19:35 -34.86120 -56.06794 538 ft 129 kts 53°
2026-04-24 19:35 -34.85570 -56.05920 508 ft 125 kts 53°
2026-04-24 19:35 -34.84878 -56.04768 295 ft 128 kts 55°
2026-04-24 19:36 -34.84515 -56.04190 173 ft 131 kts 54°
2026-04-24 19:36 -34.83968 -56.03305 63 ft 129 kts 55°
2026-04-24 19:36 -34.83437 -56.02425 55 ft 136 kts 55°
2026-04-24 19:36 -34.82775 -56.01333 269 ft 171 kts 54°
2026-04-24 19:37 -34.82185 -56.00202 1175 ft 161 kts 68°
2026-04-24 19:37 -34.82092 -55.98738 1465 ft 201 kts 101°
2026-04-24 19:37 -34.82820 -55.97203 1507 ft 220 kts 133°
2026-04-24 19:37 -34.84743 -55.96395 1431 ft 228 kts 187°
2026-04-24 19:38 -34.85704 -55.96872 1447 ft 227 kts 216°
2026-04-24 19:38 -34.86688 -55.98342 1413 ft 226 kts 239°
2026-04-24 19:38 -34.87559 -55.99956 1422 ft 226 kts 237°
2026-04-24 19:38 -34.88430 -56.01537 1427 ft 226 kts 238°
2026-04-24 19:39 -34.89312 -56.03134 1419 ft 228 kts 237°
2026-04-24 19:39 -34.90190 -56.04723 1321 ft 218 kts 238°
2026-04-24 19:39 -34.90964 -56.06166 1277 ft 191 kts 240°
2026-04-24 19:39 -34.91336 -56.07648 950 ft 179 kts 275°
2026-04-24 19:40 -34.90909 -56.08913 878 ft 157 kts 314°
2026-04-24 19:40 -34.90018 -56.09627 924 ft 151 kts 334°
2026-04-24 19:40 -34.89050 -56.10230 948 ft 159 kts 336°
2026-04-24 19:40 -34.88020 -56.10786 978 ft 162 kts 347°
2026-04-24 19:41 -34.86980 -56.10500 1113 ft 159 kts 39°
2026-04-24 19:41 -34.86493 -56.09293 1215 ft 160 kts 71°
2026-04-24 19:41 -34.86199 -56.08006 1188 ft 153 kts 73°
2026-04-24 19:41 -34.85911 -56.06792 767 ft 154 kts 69°
2026-04-24 19:42 -34.85415 -56.05718 546 ft 139 kts 51°
2026-04-24 19:42 -34.84840 -56.04774 296 ft 139 kts 59°
2026-04-24 19:42 -34.84282 -56.03820 97 ft 136 kts 55°
2026-04-24 19:42 -34.83734 -56.02910 55 ft 136 kts 56°
2026-04-24 19:43 -34.83083 -56.01859 229 ft 166 kts 58°
2026-04-24 19:43 -34.82556 -56.00773 1038 ft 162 kts 71°
2026-04-24 19:43 -34.82613 -55.99307 1423 ft 196 kts 112°
2026-04-24 19:43 -34.83639 -55.97992 1486 ft 224 kts 148°
2026-04-24 19:44 -34.85157 -55.97598 1362 ft 232 kts 186°
2026-04-24 19:44 -34.86558 -55.98429 1483 ft 224 kts 225°
2026-04-24 19:44 -34.87412 -55.99997 1531 ft 219 kts 241°
2026-04-24 19:44 -34.88226 -56.01565 1516 ft 222 kts 237°
2026-04-24 19:45 -34.89143 -56.03061 1560 ft 221 kts 234°
2026-04-24 19:45 -34.90090 -56.04561 1586 ft 219 kts 234°
2026-04-24 19:45 -34.90973 -56.06014 1483 ft 213 kts 236°
2026-04-24 19:45 -34.91799 -56.07497 1379 ft 207 kts 241°
2026-04-24 19:46 -34.92256 -56.09039 1407 ft 179 kts 268°
2026-04-24 19:46 -34.91947 -56.10323 1373 ft 151 kts 314°
2026-04-24 19:46 -34.91052 -56.10970 1382 ft 149 kts 339°
2026-04-24 19:46 -34.90088 -56.11436 1438 ft 148 kts 342°
2026-04-24 19:47 -34.89083 -56.11734 1388 ft 149 kts 13°
2026-04-24 19:47 -34.88360 -56.11006 1617 ft 137 kts 53°
2026-04-24 19:47 -34.87909 -56.09944 1572 ft 145 kts 59°
2026-04-24 19:47 -34.87394 -56.08885 1597 ft 147 kts 55°
2026-04-24 19:48 -34.86846 -56.07869 1476 ft 140 kts 52°
2026-04-24 19:48 -34.86252 -56.06946 1162 ft 137 kts 50°
2026-04-24 19:48 -34.85102 -56.05141 558 ft 133 kts 54°
2026-04-24 19:49 -34.84019 -56.03382 58 ft 125 kts 54°
2026-04-24 19:49 -34.83036 -56.01752 55 ft 137 kts 54°
2026-04-24 19:50 -34.81602 -55.98380 1152 ft 198 kts 96°
2026-04-24 19:50 -34.82334 -55.96908 1497 ft 216 kts 141°
2026-04-24 19:51 -34.85104 -55.97139 1570 ft 219 kts 225°
2026-04-24 19:51 -34.86010 -55.98605 1664 ft 214 kts 238°
2026-04-24 19:52 -34.87710 -56.01712 1559 ft 227 kts 237°
2026-04-24 19:52 -34.88605 -56.03283 1552 ft 229 kts 237°
2026-04-24 19:52 -34.89510 -56.04879 1490 ft 223 kts 237°
2026-04-24 19:52 -34.90353 -56.06420 1278 ft 215 kts 238°
2026-04-24 19:53 -34.90943 -56.07963 1110 ft 192 kts 266°
2026-04-24 19:53 -34.90579 -56.09301 1253 ft 154 kts 316°
2026-04-24 19:53 -34.88898 -56.10840 1138 ft 146 kts 331°
2026-04-24 19:54 -34.87920 -56.10878 929 ft 144 kts 31°
2026-04-24 19:54 -34.87402 -56.09919 937 ft 134 kts 69°
2026-04-24 19:54 -34.87106 -56.08868 942 ft 130 kts 69°
2026-04-24 19:54 -34.86747 -56.07866 887 ft 129 kts 60°
2026-04-24 19:55 -34.86409 -56.07247 765 ft 135 kts 53°
2026-04-24 19:55 -34.85621 -56.06023 622 ft 139 kts 52°
2026-04-24 19:55 -34.85050 -56.05062 491 ft 142 kts 56°
2026-04-24 19:55 -34.84450 -56.04091 220 ft 142 kts 54°
2026-04-24 19:56 -34.83885 -56.03165 55 ft 129 kts 56°
2026-04-24 19:56 -34.83344 -56.02260 55 ft 151 kts 52°
2026-04-24 19:56 -34.82687 -56.01189 562 ft 156 kts 55°
2026-04-24 19:56 -34.82127 -56.00137 1352 ft 150 kts 58°
2026-04-24 19:57 -34.81729 -55.98869 1734 ft 173 kts 78°
2026-04-24 19:57 -34.81833 -55.97304 1959 ft 207 kts 103°
2026-04-24 19:57 -34.81992 -55.95555 2555 ft 210 kts 83°
2026-04-24 19:57 -34.81873 -55.93828 3019 ft 212 kts 82°
2026-04-24 19:58 -34.81747 -55.92037 3060 ft 215 kts 82°
2026-04-24 19:58 -34.81639 -55.90206 3082 ft 218 kts 84°
2026-04-24 19:58 -34.81558 -55.88356 3141 ft 219 kts 85°
2026-04-24 19:58 -34.81496 -55.86458 3081 ft 227 kts 85°
2026-04-24 19:59 -34.81372 -55.84572 3157 ft 224 kts 78°
2026-04-24 19:59 -34.80761 -55.82859 3187 ft 221 kts 49°
2026-04-24 19:59 -34.79496 -55.81846 3161 ft 222 kts 15°
2026-04-24 19:59 -34.77975 -55.81837 3225 ft 221 kts 352°
2026-04-24 20:00 -34.76466 -55.82356 3189 ft 226 kts 339°
2026-04-24 20:00 -34.75098 -55.83309 3196 ft 228 kts 326°
2026-04-24 20:00 -34.74000 -55.84636 3113 ft 222 kts 306°
2026-04-24 20:00 -34.73384 -55.86329 2863 ft 221 kts 290°
2026-04-24 20:01 -34.73237 -55.88132 2731 ft 215 kts 264°
2026-04-24 20:01 -34.73826 -55.89767 2680 ft 207 kts 233°
2026-04-24 20:01 -34.74986 -55.90857 2270 ft 217 kts 208°
2026-04-24 20:01 -34.76331 -55.91598 2043 ft 216 kts 206°
2026-04-24 20:02 -34.77510 -55.92725 1820 ft 212 kts 230°
2026-04-24 20:02 -34.78372 -55.94125 1515 ft 199 kts 234°
2026-04-24 20:02 -34.79145 -55.95397 1503 ft 167 kts 235°
2026-04-24 20:02 -34.79824 -55.96534 1178 ft 164 kts 234°
2026-04-24 20:03 -34.80501 -55.97624 914 ft 158 kts 233°
2026-04-24 20:03 -34.81144 -55.98694 628 ft 155 kts 233°
2026-04-24 20:03 -34.81765 -55.99719 405 ft 148 kts 231°
2026-04-24 20:03 -34.82385 -56.00706 199 ft 149 kts 232°
2026-04-24 20:04 -34.82999 -56.01718 68 ft 143 kts 232°
2026-04-24 20:04 -34.83519 -56.02555 54 ft 100 kts 234°
2026-04-24 20:04 -34.83846 -56.03091 54 ft 60 kts 232°
2026-04-24 20:04 -34.84085 -56.03465 54 ft 62 kts 227°
2026-04-24 20:05 -34.84240 -56.03583 54 ft 23 kts 52°
2026-04-24 20:05 -34.84158 -56.03415 54 ft 23 kts 58°
2026-04-24 20:05 -34.84090 -56.03252 54 ft 21 kts 62°
2026-04-24 20:05 -34.84021 -56.03085 54 ft 22 kts 72°
2026-04-24 20:06 -34.84011 -56.02895 54 ft 23 kts 90°
2026-04-24 20:06 -34.83970 -56.02707 54 ft 23 kts 60°
2026-04-24 20:06 -34.83947 -56.02511 54 ft 24 kts 86°
2026-04-24 20:06 -34.83949 -56.02304 54 ft 24 kts 96°
2026-04-24 20:07 -34.84013 -56.02267 54 ft 14 kts 225°
2026-04-24 20:07 -34.84019 -56.02375 54 ft 9 kts 187°
2026-04-24 20:07 -34.84024 -56.02376 54 ft 0 kts 181°